TimeAKDT,TemperatureF,Dew PointF,Humidity,Sea Level PressureIn,VisibilityMPH,Wind Direction,Wind SpeedMPH,Gust SpeedMPH,PrecipitationIn,Events,Conditions,WindDirDegrees,DateUTC
12:53 AM,19.0,18.0,96,30.25,10.0,Calm,Calm,-,N/A,,Scattered Clouds,0,2013-03-28 08:53:00
1:53 AM,19.9,18.0,92,30.25,10.0,Calm,Calm,-,N/A,,Overcast,0,2013-03-28 09:53:00
2:53 AM,21.0,17.1,85,30.25,10.0,NNW,3.5,-,N/A,,Overcast,340,2013-03-28 10:53:00
3:53 AM,21.9,18.0,85,30.25,10.0,Calm,Calm,-,N/A,,Overcast,0,2013-03-28 11:53:00
4:53 AM,21.9,17.1,82,30.25,10.0,Calm,Calm,-,N/A,,Overcast,0,2013-03-28 12:53:00
5:53 AM,21.9,18.0,85,30.24,10.0,Calm,Calm,-,N/A,,Overcast,0,2013-03-28 13:53:00
6:53 AM,21.0,18.0,88,30.23,10.0,Calm,Calm,-,N/A,,Overcast,0,2013-03-28 14:53:00
7:53 AM,21.0,18.0,88,30.22,10.0,Calm,Calm,-,N/A,,Mostly Cloudy,0,2013-03-28 15:53:00
8:53 AM,21.9,19.0,89,30.22,10.0,Calm,Calm,-,N/A,,Scattered Clouds,0,2013-03-28 16:53:00
9:53 AM,30.9,18.0,59,30.22,10.0,NE,3.5,-,N/A,,Scattered Clouds,40,2013-03-28 17:53:00
10:53 AM,33.1,15.1,48,30.22,10.0,NE,4.6,-,N/A,,Scattered Clouds,40,2013-03-28 18:53:00
11:53 AM,34.0,17.1,50,30.22,10.0,Variable,3.5,-,N/A,,Mostly Cloudy,0,2013-03-28 19:53:00
12:53 PM,35.1,19.0,52,30.22,10.0,SE,9.2,-,N/A,,Overcast,130,2013-03-28 20:53:00
1:53 PM,35.1,21.0,57,30.21,10.0,Variable,4.6,-,N/A,,Overcast,0,2013-03-28 21:53:00
2:53 PM,36.0,17.1,46,30.19,10.0,East,9.2,-,N/A,,Overcast,90,2013-03-28 22:53:00
3:53 PM,36.0,17.1,46,30.18,10.0,East,6.9,-,N/A,,Overcast,100,2013-03-28 23:53:00
4:53 PM,35.1,19.0,52,30.17,10.0,NE,6.9,-,N/A,,Overcast,50,2013-03-29 00:53:00
5:53 PM,34.0,21.0,59,30.16,10.0,East,4.6,-,N/A,,Overcast,90,2013-03-29 01:53:00
6:53 PM,33.1,21.0,61,30.16,10.0,East,4.6,-,N/A,,Overcast,90,2013-03-29 02:53:00
7:53 PM,33.1,21.0,61,30.15,10.0,SE,3.5,-,N/A,,Overcast,130,2013-03-29 03:53:00
8:53 PM,33.1,21.9,64,30.16,8.0,ENE,4.6,-,0.00,Snow,Light Snow,70,2013-03-29 04:53:00
9:53 PM,33.1,23.0,66,30.15,10.0,East,10.4,-,0.00,,Overcast,100,2013-03-29 05:53:00
10:53 PM,34.0,21.9,61,30.14,10.0,East,6.9,16.1,N/A,,Overcast,90,2013-03-29 06:53:00
11:53 PM,34.0,21.9,61,30.13,10.0,East,9.2,-,N/A,,Overcast,80,2013-03-29 07:53:00